Simultaneous Nadir Overpasses (SNOs) Predictions

Prediction of SNOs between GOES-14 and AQUA Satellite Orbit:

Table of predicted SNOs for the next 14.0 days since TLE Epoch: 6/12/2020
Index Date Time (GOES-14) GOES-14 Lat,Lon AQUA Lat,Lon Distance(km) Time Diff (sec)
1 06/12/2020 20:42:24 0.07,-104.35 -0.51,-106.94 294.92 80
2 06/14/2020 20:32:53 0.07,-104.36 0.15,-103.98 42.21 80
3 06/16/2020 20:20:41 0.06,-104.36 0.75,-101.02 379.36 80
4 06/17/2020 08:39:17 -0.09,-104.18 0.32,-106.18 227.65 80
5 06/19/2020 08:29:45 -0.10,-104.19 -0.28,-103.22 109.23 80
6 06/19/2020 20:48:30 0.12,-104.38 -0.77,-108.42 460.99 80
7 06/21/2020 08:17:34 -0.09,-104.19 -0.94,-100.27 445.87 80
8 06/21/2020 20:36:19 0.12,-104.38 -0.10,-105.47 124.46 80
9 06/23/2020 20:26:47 0.12,-104.38 0.51,-102.51 211.90 80
10 06/24/2020 08:45:22 -0.15,-104.19 0.57,-107.67 396.01 80
11 06/26/2020 08:33:11 -0.14,-104.19 -0.04,-104.71 59.47 80




NCC Satellite Simultaneous Nadir Overpasses (SNOs) Prediction Service
